Home   Weather   Mühlacker   Past weeks

Flag for Germany Past Weather in Mühlacker, Baden-Württemberg, Germany — Yesterday and Last 2 Weeks

Now
25 °F

Sunny.


Feels Like: 25 °F
Forecast: 27 / 44 °F
Wind: 2 mph from North

Location: Stuttgart-Echterdingen

Current Time: Dec 8, 2016 at 9:07:00 am

Latest Report: Dec 8, 2016 at 8:20 am


Visibility: 10 mi

Pressure: 30.54 "Hg

Humidity: 100%

Dew Point: 25 °F

Location of MühlackerLocation

Past Weather in Mühlacker — Graph

°F

Mühlacker Temperature Yesterday

Maximum temperature yesterday: 37 °F (at 2:50 pm)
Minimum temperature yesterday: 21 °F (at 12:20 am)
Average temperature yesterday: 28 °F

High & Low Weather Summary for the Past Weeks

 TemperatureHumidityPressure
High50 °F (Nov 23, 1:50 pm)100% (Nov 23, 7:50 am)30.54 "Hg (Nov 23, 7:50 am)
Low19 °F (Nov 30, 5:20 am)31% (Dec 1, 1:50 pm)29.95 "Hg (Nov 24, 5:20 am)
Average35 °F86%30.24 "Hg
* Reported Nov 23 7:20 am — Dec 8 7:50 am, Mühlacker, Weather by CustomWeather, © 2016

Note: Actual official high and low records may vary slightly from our data, if they occured in-between our weather recording intervals... More about our weather records

Advertising

Mühlacker Weather History for the Previous 24 Hours

Scroll right to see more
 ConditionsComfort  
Time TempWeatherWind HumidityBarometerVisibility
7:50 am
Thu, Dec 8
25 °FClear.1 mph100%30.54 "Hg10 mi
7:20 am25 °FClear.1 mph100%30.51 "Hg10 mi
6:50 am27 °FClear.No wind93%30.51 "Hg10 mi
6:20 am25 °FPassing clouds.1 mph100%30.51 "HgN/A
5:50 am25 °FPassing clouds.3 mph100%30.51 "HgN/A
5:20 am25 °FPassing clouds.3 mph100%30.51 "Hg4 mi
4:50 am25 °FSleet. Overcast.1 mph100%30.51 "Hg2 mi
4:20 am27 °FSleet. Overcast.2 mph93%30.51 "Hg2 mi
3:50 am27 °FSleet. Overcast.No wind100%30.51 "Hg4 mi
3:20 am27 °FSleet. Overcast.1 mph100%30.54 "Hg2 mi
2:50 am27 °FSleet. Overcast.2 mph100%30.54 "Hg1 mi
2:20 am27 °FSleet. Overcast.1 mph100%30.54 "Hg1 mi
1:50 am27 °FIce fog.5 mph100%30.54 "Hg0 mi
1:20 am27 °FSleet. Overcast.1 mph93%30.51 "Hg1 mi
12:50 am27 °FSleet. Overcast.1 mph100%30.54 "Hg1 mi
12:20 am28 °FSleet. Ice fog.1 mph93%30.54 "Hg2 mi
11:50 pm
Wed, Dec 7
28 °FSleet. Ice fog.1 mph100%30.54 "Hg3 mi
11:20 pm28 °FSleet. Passing clouds.1 mph100%30.54 "Hg4 mi
10:50 pm28 °FSleet. Passing clouds.No wind100%30.54 "Hg4 mi
10:20 pm30 °FSleet. Light fog.2 mph93%30.54 "Hg5 mi
9:50 pm30 °FClear.2 mph93%30.54 "Hg5 mi
9:20 pm30 °FClear.3 mph100%30.54 "Hg5 mi
8:50 pm30 °FClear.6 mph100%30.54 "Hg4 mi
8:20 pm32 °FClear.1 mph93%30.54 "Hg4 mi
7:50 pm32 °FClear.No wind93%30.54 "Hg4 mi
7:20 pm34 °FClear.No wind93%30.51 "Hg4 mi
6:50 pm34 °FClear.1 mph93%30.51 "Hg4 mi
6:20 pm34 °FClear.1 mph93%30.51 "Hg5 mi
5:50 pm34 °FClear.1 mph93%30.51 "Hg5 mi
5:20 pm34 °FClear.1 mph93%30.51 "Hg10 mi
4:50 pm36 °FClear.2 mph87%30.51 "Hg10 mi
4:20 pm36 °FSunny.1 mph87%30.51 "Hg10 mi
3:20 pm37 °FSunny.No wind87%30.48 "Hg10 mi
2:50 pm37 °FSunny.2 mph87%30.48 "Hg10 mi
2:20 pm36 °FPassing clouds.1 mph93%30.48 "Hg5 mi
1:50 pm32 °FPassing clouds.1 mph100%30.51 "Hg4 mi
1:20 pm30 °FIce fog.2 mph100%30.51 "Hg1 mi
12:50 pm28 °FIce fog.3 mph100%30.51 "Hg1 mi
12:20 pm28 °FIce fog.1 mph93%30.51 "Hg1 mi
11:50 am28 °FIce fog.1 mph93%30.51 "Hg1 mi
11:20 am27 °FIce fog.1 mph100%30.51 "Hg0 mi
10:50 am25 °FIce fog.2 mph100%30.51 "Hg0 mi
10:20 am25 °FIce fog.2 mph100%30.51 "Hg0 mi
9:50 am25 °FIce fog.2 mph93%30.51 "Hg0 mi
9:20 am23 °FIce fog.1 mph100%30.51 "Hg0 mi
Weather by CustomWeather, © 2016

See weather overviewHow to use our weather pages